Location: Breitenfeld
(46.8500°N, 15.6333°E)
Time: 22:07:38
(UTC+00:00)

Cosmos 1980 Rocket - Pass Details

Date: 09 April 2020
Orbit: 828 x 851 km, 71.0° (Epoch: 03 June)

Event Time Altitude Azimuth Distance (km) Brightness Sun altitude
Rises 21:37:55 0° 329° (NNW) 3,389 6.4 -32.3°
Reaches altitude 10° 21:40:24 10° 325° (NW) 2,454 5.4 -32.4°
Enters shadow 21:44:28 42° 293° (WNW) 1,176 3.1 -32.7°
